ES'HAIL 2

Last updated on Tue Sep 16 2025 00:02:49 GMT+0000 (Coordinated Universal Time)

1 43700U 18090A 25258.51827566 .00000128 00000+0 00000+0 0 9993 2 43700 0.0178 111.8428 0001602 105.9454 349.3432 1.00273940 24925
UTC large
Height (km)
Speed (km/s)
/
Latitude / Longitude
Inclination (degrees)
Orbital Period (minutes)
Azimuth
Elevation
Range (km)
Doppler Factor

Next 0 passes for location: London (51.5072 / 0.1276)

Sorry there are no passes over London.